PDT,Max TemperatureF,Mean TemperatureF,Min TemperatureF,Max Dew PointF,MeanDew PointF,Min DewpointF,Max Humidity, Mean Humidity, Min Humidity, Max Sea Level PressureIn, Mean Sea Level PressureIn, Min Sea Level PressureIn, Max VisibilityMiles, Mean VisibilityMiles, Min VisibilityMiles, Max Wind SpeedMPH, Mean Wind SpeedMPH, Max Gust SpeedMPH,PrecipitationIn, CloudCover, Events, WindDirDegrees
2012-10-1,98,75,52,38,28,20,48,27,6,29.94,29.88,29.81,,,,21,8,26,0.00,,,57
2012-10-2,98,74,50,39,30,20,35,21,7,29.88,29.84,29.79,,,,18,7,28,0.00,,,15
2012-10-3,90,70,49,43,37,31,54,33,12,29.99,29.93,29.87,,,,24,10,29,0.00,,,290
2012-10-4,84,65,45,48,39,32,71,44,16,30.05,30.02,29.99,,,,20,9,25,0.00,,,54
2012-10-5,83,63,42,50,39,31,71,44,16,30.02,29.96,29.90,,,,20,7,22,0.00,,,71
2012-10-6,83,63,42,50,41,35,82,50,18,29.93,29.89,29.84,,,,18,9,25,0.00,,,328
2012-10-7,82,64,46,53,47,42,86,59,32,29.89,29.86,29.81,,,,18,8,24,0.00,,,177
2012-10-8,80,62,44,53,48,43,93,63,33,29.94,29.90,29.85,,,,22,8,25,0.00,,,51
2012-10-9,77,57,37,53,44,30,93,57,20,29.94,29.91,29.86,,,,20,7,24,0.00,,,201
2012-10-10,71,60,48,51,47,39,86,60,33,29.94,29.89,29.83,,,,21,6,24,0.00,,,228
2012-10-11,64,53,41,48,44,40,89,66,43,29.95,29.86,29.81,,,,23,10,30,0.00,,,243
2012-10-12,61,56,50,48,46,41,93,75,57,30.14,30.03,29.91,,,,15,9,21,0.32,,,242
2012-10-13,78,58,37,45,38,35,93,58,22,30.12,30.06,29.99,,,,23,9,28,0.00,,,58
2012-10-14,82,64,46,42,39,37,76,49,21,30.04,29.98,29.93,,,,30,11,39,0.00,,,52
2012-10-15,90,68,46,44,38,28,71,42,12,29.95,29.89,29.81,,,,16,6,22,0.00,,,44
2012-10-16,90,68,46,40,32,23,60,35,9,29.87,29.80,29.72,,,,16,8,21,0.00,,,53
2012-10-17,88,68,48,39,32,27,61,36,11,29.88,29.79,29.76,,,,22,11,28,0.00,,,62
2012-10-18,79,67,54,59,54,40,67,59,50,30.01,29.94,29.89,,,,22,11,26,0.00,,,182
2012-10-19,84,65,45,58,50,41,93,61,28,29.96,29.89,29.83,,,,18,7,23,0.00,,,170
2012-10-20,73,60,46,57,52,45,93,71,49,29.88,29.82,29.77,,,,17,7,21,0.00,,,223
2012-10-21,65,61,57,54,52,51,86,77,67,29.87,29.83,29.79,,,,15,7,17,0.02,,,227
2012-10-22,68,58,48,52,48,44,93,71,48,29.92,29.89,29.84,,,,18,8,24,0.00,,,218
2012-10-23,66,54,41,46,42,35,93,69,44,29.94,29.90,29.86,,,,18,6,22,0.00,,,247
2012-10-24,69,52,34,46,38,31,92,62,32,30.01,29.96,29.91,,,,17,6,29,0.00,,,266
2012-10-25,78,56,34,37,25,13,92,51,10,30.01,29.96,29.90,,,,18,7,22,0.00,,,59
2012-10-26,71,65,59,20,15,1,20,16,11,30.00,29.93,29.88,,,,36,23,46,0.00,,,54
2012-10-27,81,70,58,15,4,-6,9,7,4,29.91,29.85,29.79,,,,31,17,39,0.00,,,43
2012-10-28,85,62,39,22,15,5,37,21,5,30.01,29.93,29.87,,,,18,8,23,0.00,,,58
2012-10-29,85,61,37,25,19,10,39,23,6,30.06,30.02,29.96,,,,18,8,26,0.00,,,52
2012-10-30,84,62,39,35,26,17,45,27,9,30.05,29.99,29.91,,,,18,7,23,0.00,,,52
2012-10-31,81,60,38,48,32,18,53,32,10,30.00,29.95,29.90,,,,17,7,21,0.00,,,48